TimeEST,TemperatureF,Dew PointF,Humidity,Sea Level PressureIn,VisibilityMPH,Wind Direction,Wind SpeedMPH,Gust SpeedMPH,PrecipitationIn,Events,Conditions,WindDirDegrees,DateUTC
12:56 AM,15.1,6.1,68,30.38,10.0,NNW,12.7,-,N/A,,Partly Cloudy,340,2014-01-03 05:56:00
1:56 AM,14.0,6.1,71,30.41,10.0,WNW,5.8,-,N/A,,Partly Cloudy,300,2014-01-03 06:56:00
2:56 AM,14.0,5.0,67,30.43,10.0,NW,8.1,-,N/A,,Clear,320,2014-01-03 07:56:00
3:56 AM,14.0,3.9,64,30.44,10.0,North,9.2,-,N/A,,Clear,350,2014-01-03 08:56:00
4:56 AM,12.9,3.0,65,30.47,10.0,NNW,9.2,-,N/A,,Clear,330,2014-01-03 09:56:00
5:56 AM,12.9,1.9,62,30.48,10.0,North,10.4,-,N/A,,Clear,350,2014-01-03 10:56:00
6:56 AM,12.9,1.9,62,30.49,10.0,North,6.9,-,N/A,,Clear,360,2014-01-03 11:56:00
7:56 AM,12.0,1.9,64,30.50,10.0,North,8.1,-,N/A,,Clear,360,2014-01-03 12:56:00
8:56 AM,12.9,3.0,65,30.54,10.0,NNE,4.6,-,N/A,,Clear,30,2014-01-03 13:56:00
9:56 AM,15.1,3.9,61,30.55,10.0,NE,3.5,-,N/A,,Clear,50,2014-01-03 14:56:00
10:56 AM,16.0,3.9,59,30.57,10.0,Calm,Calm,-,N/A,,Clear,0,2014-01-03 15:56:00
11:56 AM,19.0,3.0,50,30.54,10.0,Calm,Calm,-,N/A,,Clear,0,2014-01-03 16:56:00
12:56 PM,21.0,3.9,48,30.51,10.0,SE,3.5,-,N/A,,Partly Cloudy,140,2014-01-03 17:56:00
1:56 PM,23.0,3.9,44,30.47,10.0,ESE,6.9,-,N/A,,Partly Cloudy,110,2014-01-03 18:56:00
2:56 PM,24.1,6.1,46,30.47,10.0,South,4.6,-,N/A,,Partly Cloudy,170,2014-01-03 19:56:00
3:56 PM,24.1,6.1,46,30.45,10.0,South,5.8,-,N/A,,Partly Cloudy,180,2014-01-03 20:56:00
4:56 PM,24.1,7.0,48,30.43,10.0,SE,9.2,-,N/A,,Partly Cloudy,140,2014-01-03 21:56:00
5:56 PM,21.9,8.1,55,30.41,10.0,SE,10.4,-,N/A,,Partly Cloudy,130,2014-01-03 22:56:00
6:56 PM,21.0,9.0,60,30.40,10.0,SE,12.7,-,N/A,,Partly Cloudy,140,2014-01-03 23:56:00
7:56 PM,21.0,8.1,57,30.39,10.0,SSE,9.2,-,N/A,,Partly Cloudy,150,2014-01-04 00:56:00
8:56 PM,19.9,9.0,62,30.37,10.0,SE,9.2,-,N/A,,Partly Cloudy,140,2014-01-04 01:56:00
9:56 PM,19.9,9.0,62,30.33,10.0,SE,10.4,-,N/A,,Partly Cloudy,140,2014-01-04 02:56:00
10:56 PM,19.0,10.0,68,30.31,10.0,SSE,6.9,-,N/A,,Scattered Clouds,150,2014-01-04 03:56:00
11:56 PM,19.9,9.0,62,30.27,10.0,SSE,10.4,-,N/A,,Partly Cloudy,150,2014-01-04 04:56:00